DHASA EDFW-EDDF

Flight info

Callsign DHASA
Flight time 0h 28m
Altitude 1234
Route DELTA LIMA
Aircraft B06/L-SDFGRY/LB1

Departure

Time 2026-05-04 12:44
Airport Würzburg-Schenkenturm Airfield (EDFW)

Arrival

Time 2026-05-04 13:12
Airport Frankfurt Main Airport (EDDF)
Time Latitude Longitude Altitude Speed Heading
2026-05-04 12:37 49.81729 9.90101 1000 ft 0 kts 296°
2026-05-04 12:43 49.81731 9.90096 1010 ft 1 kts 288°
2026-05-04 12:43 49.81768 9.89850 1027 ft 49 kts 290°
2026-05-04 12:43 49.81872 9.89243 1174 ft 63 kts 284°
2026-05-04 12:43 49.81958 9.88540 1371 ft 70 kts 281°
2026-05-04 12:44 49.82056 9.87700 1457 ft 88 kts 279°
2026-05-04 12:44 49.82106 9.86681 1526 ft 101 kts 271°
2026-05-04 12:44 49.82134 9.85542 1576 ft 108 kts 273°
2026-05-04 12:44 49.82142 9.84364 1647 ft 111 kts 270°
2026-05-04 12:45 49.82075 9.83181 1765 ft 110 kts 266°
2026-05-04 12:45 49.82091 9.81975 1829 ft 114 kts 270°
2026-05-04 12:45 49.82059 9.80731 1874 ft 117 kts 268°
2026-05-04 12:45 49.82030 9.79452 1885 ft 120 kts 269°
2026-05-04 12:46 49.82015 9.78151 1888 ft 121 kts 269°
2026-05-04 12:46 49.82015 9.76829 1920 ft 124 kts 272°
2026-05-04 12:46 49.82063 9.75521 2019 ft 119 kts 273°
2026-05-04 12:46 49.82118 9.74244 2083 ft 120 kts 274°
2026-05-04 12:47 49.82175 9.72930 2088 ft 125 kts 274°
2026-05-04 12:47 49.82230 9.71590 2084 ft 125 kts 272°
2026-05-04 12:47 49.82294 9.70237 2142 ft 127 kts 272°
2026-05-04 12:47 49.82342 9.68869 2165 ft 130 kts 272°
2026-05-04 12:48 49.82397 9.67459 2154 ft 132 kts 273°
2026-05-04 12:48 49.82472 9.66040 2151 ft 133 kts 274°
2026-05-04 12:48 49.82538 9.64618 2140 ft 132 kts 272°
2026-05-04 12:48 49.82607 9.63189 2146 ft 133 kts 273°
2026-05-04 12:49 49.82690 9.61777 2161 ft 132 kts 277°
2026-05-04 12:49 49.82841 9.60377 2201 ft 131 kts 280°
2026-05-04 12:49 49.83012 9.58989 2251 ft 131 kts 280°
2026-05-04 12:49 49.83138 9.57609 2245 ft 130 kts 272°
2026-05-04 12:50 49.83146 9.56225 2281 ft 128 kts 265°
2026-05-04 12:50 49.83074 9.54829 2282 ft 132 kts 265°
2026-05-04 12:50 49.83035 9.53410 2364 ft 131 kts 268°
2026-05-04 12:50 49.83055 9.52024 2473 ft 128 kts 271°
2026-05-04 12:51 49.83099 9.50652 2528 ft 127 kts 271°
2026-05-04 12:51 49.83145 9.49283 2534 ft 128 kts 272°
2026-05-04 12:51 49.83234 9.47902 2510 ft 130 kts 274°
2026-05-04 12:51 49.83294 9.46479 2567 ft 135 kts 271°
2026-05-04 12:52 49.83361 9.45011 2553 ft 140 kts 273°
2026-05-04 12:52 49.83455 9.43533 2554 ft 136 kts 275°
2026-05-04 12:52 49.83556 9.42085 2524 ft 135 kts 273°
2026-05-04 12:52 49.83623 9.40634 2489 ft 135 kts 272°
2026-05-04 12:53 49.83695 9.39199 2486 ft 133 kts 274°
2026-05-04 12:53 49.83770 9.37760 2468 ft 133 kts 275°
2026-05-04 12:53 49.83854 9.36369 2556 ft 129 kts 273°
2026-05-04 12:53 49.83975 9.35006 2586 ft 127 kts 274°
2026-05-04 12:54 49.84060 9.33641 2590 ft 127 kts 273°
2026-05-04 12:54 49.84126 9.32282 2587 ft 128 kts 271°
2026-05-04 12:54 49.84168 9.30882 2641 ft 131 kts 270°
2026-05-04 12:54 49.84201 9.29451 2580 ft 134 kts 270°
2026-05-04 12:55 49.84223 9.28027 2600 ft 129 kts 268°
2026-05-04 12:55 49.84214 9.26627 2581 ft 132 kts 269°
2026-05-04 12:55 49.84191 9.25197 2520 ft 133 kts 269°
2026-05-04 12:55 49.84321 9.23787 2545 ft 133 kts 282°
2026-05-04 12:56 49.84589 9.22430 2631 ft 131 kts 281°
2026-05-04 12:56 49.84679 9.21018 2587 ft 131 kts 273°
2026-05-04 12:56 49.84730 9.19605 2506 ft 133 kts 270°
2026-05-04 12:56 49.84786 9.18169 2434 ft 133 kts 274°
2026-05-04 12:57 49.84828 9.16765 2464 ft 129 kts 269°
2026-05-04 12:57 49.84812 9.15374 2497 ft 129 kts 269°
2026-05-04 12:57 49.84897 9.13954 2421 ft 133 kts 276°
2026-05-04 12:57 49.85023 9.12565 2517 ft 128 kts 277°
2026-05-04 12:58 49.85155 9.11181 2479 ft 133 kts 277°
2026-05-04 12:58 49.85272 9.09753 2422 ft 135 kts 276°
2026-05-04 12:58 49.85409 9.08340 2442 ft 128 kts 278°
2026-05-04 12:58 49.85554 9.07101 2477 ft 128 kts 279°
2026-05-04 12:59 49.85737 9.05676 2417 ft 133 kts 280°
2026-05-04 12:59 49.85920 9.04291 2453 ft 130 kts 281°
2026-05-04 12:59 49.86103 9.02879 2383 ft 137 kts 277°
2026-05-04 12:59 49.86218 9.01484 2521 ft 126 kts 275°
2026-05-04 13:00 49.86337 9.00135 2463 ft 126 kts 276°
2026-05-04 13:00 49.86407 8.98788 2442 ft 126 kts 270°
2026-05-04 13:00 49.86435 8.97417 2379 ft 130 kts 270°
2026-05-04 13:00 49.86370 8.96020 2376 ft 131 kts 255°
2026-05-04 13:01 49.86107 8.94660 2357 ft 132 kts 252°
2026-05-04 13:01 49.85927 8.93256 2274 ft 133 kts 264°
2026-05-04 13:01 49.85944 8.91832 2205 ft 132 kts 273°
2026-05-04 13:01 49.86011 8.90448 2155 ft 130 kts 271°
2026-05-04 13:02 49.86021 8.89028 2083 ft 133 kts 268°
2026-05-04 13:02 49.86016 8.87619 2066 ft 130 kts 268°
2026-05-04 13:02 49.85980 8.86212 2048 ft 130 kts 263°
2026-05-04 13:02 49.85891 8.84790 1987 ft 135 kts 262°
2026-05-04 13:03 49.85785 8.83352 1952 ft 131 kts 260°
2026-05-04 13:03 49.85640 8.82000 2000 ft 124 kts 258°
2026-05-04 13:03 49.85437 8.80696 1987 ft 127 kts 253°
2026-05-04 13:03 49.85180 8.79387 2055 ft 125 kts 251°
2026-05-04 13:04 49.84950 8.78075 2018 ft 128 kts 257°
2026-05-04 13:04 49.84843 8.76698 1969 ft 128 kts 264°
2026-05-04 13:04 49.84724 8.75326 1931 ft 130 kts 254°
2026-05-04 13:04 49.84618 8.73936 1911 ft 130 kts 271°
2026-05-04 13:05 49.84694 8.72552 1905 ft 128 kts 272°
2026-05-04 13:05 49.84707 8.71210 1958 ft 123 kts 268°
2026-05-04 13:05 49.84687 8.69882 1949 ft 124 kts 266°
2026-05-04 13:05 49.84674 8.68563 1948 ft 122 kts 268°
2026-05-04 13:06 49.84703 8.67254 1945 ft 123 kts 273°
2026-05-04 13:06 49.84884 8.65983 1944 ft 123 kts 288°
2026-05-04 13:06 49.85311 8.64815 1917 ft 126 kts 304°
2026-05-04 13:06 49.85868 8.63773 1931 ft 125 kts 311°
2026-05-04 13:07 49.86440 8.62781 1966 ft 126 kts 310°
2026-05-04 13:07 49.87013 8.61730 1954 ft 131 kts 309°
2026-05-04 13:07 49.87808 8.60980 1717 ft 138 kts 347°
2026-05-04 13:07 49.88746 8.61055 1656 ft 134 kts
2026-05-04 13:08 49.89665 8.61206 1686 ft 132 kts
2026-05-04 13:08 49.90585 8.61350 1670 ft 134 kts
2026-05-04 13:08 49.91527 8.61481 1505 ft 137 kts
2026-05-04 13:08 49.92477 8.61598 1471 ft 136 kts
2026-05-04 13:09 49.93413 8.61600 1406 ft 134 kts 356°
2026-05-04 13:09 49.94341 8.61558 1344 ft 131 kts 356°
2026-05-04 13:09 49.95190 8.61447 1280 ft 131 kts 351°
2026-05-04 13:09 49.96131 8.61222 1325 ft 130 kts 349°
2026-05-04 13:10 49.97017 8.60939 1270 ft 132 kts 344°
2026-05-04 13:10 49.97897 8.60578 1222 ft 129 kts 342°
2026-05-04 13:10 49.98752 8.60150 1182 ft 126 kts 339°
2026-05-04 13:10 49.99555 8.59700 1175 ft 119 kts 338°
2026-05-04 13:11 50.00349 8.59604 1115 ft 119 kts 18°
2026-05-04 13:11 50.01071 8.60048 1167 ft 106 kts 21°
2026-05-04 13:11 50.01506 8.60320 1136 ft 101 kts 20°
2026-05-04 13:11 50.02182 8.60530 1089 ft 97 kts 360°
2026-05-04 13:12 50.02825 8.60428 1061 ft 87 kts 345°
2026-05-04 13:12 50.03377 8.60183 954 ft 80 kts 342°
2026-05-04 13:12 50.03808 8.59971 818 ft 52 kts 341°
2026-05-04 13:12 50.04099 8.59753 617 ft 41 kts 314°
2026-05-04 13:13 50.04174 8.59341 533 ft 40 kts 260°
2026-05-04 13:13 50.04084 8.58990 462 ft 29 kts 255°
2026-05-04 13:13 50.04026 8.58750 405 ft 20 kts 256°
2026-05-04 13:13 50.03976 8.58638 369 ft 10 kts 186°
2026-05-04 13:14 50.03907 8.58674 365 ft 9 kts 172°
2026-05-04 13:14 50.03866 8.58697 363 ft 5 kts 176°
2026-05-04 13:14 50.03821 8.58726 363 ft 10 kts 169°
2026-05-04 13:14 50.03743 8.58721 364 ft 14 kts 232°
2026-05-04 13:15 50.03696 8.58545 366 ft 20 kts 253°
2026-05-04 13:15 50.03640 8.58318 364 ft 24 kts 253°
2026-05-04 13:15 50.03584 8.58088 363 ft 23 kts 256°
2026-05-04 13:15 50.03521 8.57819 364 ft 29 kts 252°
2026-05-04 13:16 50.03447 8.57512 366 ft 31 kts 251°
2026-05-04 13:16 50.03379 8.57225 363 ft 23 kts 255°
2026-05-04 13:16 50.03327 8.57010 364 ft 21 kts 255°
2026-05-04 13:16 50.03335 8.56767 363 ft 26 kts 282°
2026-05-04 13:17 50.03295 8.56482 360 ft 28 kts 256°
2026-05-04 13:17 50.03230 8.56213 359 ft 25 kts 260°
2026-05-04 13:17 50.03166 8.55939 363 ft 29 kts 254°
2026-05-04 13:17 50.03086 8.55667 367 ft 23 kts 244°
2026-05-04 13:18 50.03033 8.55406 368 ft 31 kts 253°
2026-05-04 13:18 50.02945 8.55017 366 ft 43 kts 249°
2026-05-04 13:18 50.02836 8.54573 364 ft 45 kts 249°
2026-05-04 13:18 50.02727 8.54109 368 ft 46 kts 249°
2026-05-04 13:19 50.02574 8.53684 366 ft 45 kts 229°
2026-05-04 13:19 50.02451 8.53293 368 ft 33 kts 250°
2026-05-04 13:19 50.02383 8.53004 366 ft 28 kts 251°
2026-05-04 13:19 50.02261 8.52829 361 ft 26 kts 180°
2026-05-04 13:20 50.02149 8.52897 357 ft 16 kts 92°
2026-05-04 13:20 50.02158 8.53077 359 ft 16 kts 78°
2026-05-04 13:20 50.02183 8.53202 362 ft 9 kts 108°
2026-05-04 13:20 50.02185 8.53233 357 ft 0 kts 121°
2026-05-04 13:21 50.02185 8.53234 355 ft 0 kts 127°